Canadian, TX

12:57 PM CDT on September 30, 2016 (GMT -0500)
Hemphill County

Weather History for KHHF - March, 2013

Change the Weather History Date:

Sunday, March 31, 2013

  Actual Average (KPPA) Record (KPPA)
Temperature  
Mean Temperature 59 °F -  
Max Temperature 68 °F 62 °F 87 °F (1966)
Min Temperature 50 °F 34 °F 13 °F (1987)
Degree Days  
Heating Degree Days 6    
Growing Degree Days 9 (Base 50)    
Moisture  
Dew Point 40 °F    
Average Humidity 56    
Maximum Humidity 92    
Minimum Humidity 20    
Precipitation  
Precipitation 0.13 in - - ()
Sea Level Pressure  
Sea Level Pressure 30.04 in    
Wind  
Wind Speed 9 mph (North)    
Max Wind Speed 26 mph    
Max Gust Speed 47 mph    
Visibility 10 miles    
Events Rain , Thunderstorm    
Averages and records for this station are not official NWS values.
T = Trace of Precipitation, MM = Missing Value Source: NWS Daily Summary

Daily Weather History Graph

Daily Weather History Graph

Search for Another Location

Airport or City:

Trip Planner

Search our weather history database for the weather conditions in past years. The results will help you decide how hot, cold, wet, or windy it might be!

Date:

Astronomy

Mar. 31, 2013 Rise Set
Actual Time 7:28 AM CDT 8:02 PM CDT
Civil Twilight 7:03 AM CDT 8:28 PM CDT
Nautical Twilight 6:32 AM CDT 8:59 PM CDT
Astronomical Twilight 6:02 AM CDT 9:30 PM CDT
Moon 12:02 AM CDT (3/31) 10:26 AM CDT (3/31)
Length of Visible Light 13h 25m
Length of Day
12h 33m
Waning Gibbous, 77% of the Moon is Illuminated
Mar 31
Waning Gibbous
Apr 2
Last Quarter
Apr 10
New
Apr 18
First Quarter
Apr 25
Full

Hourly Weather History & Observations

Time (CDT) Temp. Dew Point Humidity Pressure Visibility Wind Dir Wind Speed Gust Speed Precip Events Conditions
12:15 AM 57.7 °F 37.0 °F 46% 29.95 in 10.0 mi NNW 4.6 mph - N/A   Scattered Clouds
12:35 AM 60.4 °F 37.9 °F 43% 29.98 in 10.0 mi NNE 8.1 mph - N/A   Mostly Cloudy
12:55 AM 62.8 °F 41.9 °F 46% 29.96 in 10.0 mi ENE 16.1 mph 23.0 mph N/A   Scattered Clouds
1:15 AM 61.7 °F 45.5 °F 55% 29.97 in 10.0 mi ENE 12.7 mph - N/A   Clear
1:35 AM 59.9 °F 45.7 °F 59% 30.00 in 10.0 mi NE 10.4 mph - N/A   Scattered Clouds
1:55 AM 59.9 °F 46.9 °F 62% 30.05 in 10.0 mi North 20.7 mph 27.6 mph N/A Thunderstorm Thunderstorm
2:15 AM 53.2 °F 48.9 °F 85% 30.06 in 5.0 mi NNE 26.5 mph 47.2 mph 0.02 in Rain , Thunderstorm Heavy Thunderstorms and Rain
2:35 AM 52.0 °F 49.3 °F 90% 30.06 in 7.0 mi NNE 26.5 mph 42.6 mph 0.06 in Rain , Thunderstorm Rain
2:55 AM 52.3 °F 49.1 °F 89% 30.07 in 10.0 mi NNE 26.5 mph 31.1 mph 0.06 in Rain , Thunderstorm Light Thunderstorms and Rain
3:15 AM 52.3 °F 48.6 °F 87% 30.05 in 10.0 mi NNE 19.6 mph 26.5 mph 0.01 in Rain Light Rain
3:35 AM 51.8 °F 48.2 °F 88% 30.07 in 10.0 mi NNE 11.5 mph 23.0 mph 0.01 in Rain Light Rain
3:55 AM 51.8 °F 48.0 °F 87% 30.05 in 10.0 mi NNE 15.0 mph 21.9 mph 0.01 in   Mostly Cloudy
4:15 AM 52.0 °F 47.7 °F 85% 30.05 in 10.0 mi NNE 11.5 mph 18.4 mph N/A Thunderstorm Thunderstorm
4:35 AM 52.3 °F 47.7 °F 84% 30.06 in 10.0 mi NE 6.9 mph - N/A Thunderstorm Thunderstorm
4:55 AM 52.2 °F 47.8 °F 85% 30.06 in 10.0 mi North 3.5 mph - N/A Thunderstorm Unknown
5:15 AM 51.1 °F 48.4 °F 90% 30.05 in 7.0 mi NNE 6.9 mph - 0.04 in Rain , Thunderstorm Rain
5:35 AM 51.1 °F 48.4 °F 90% 30.03 in 10.0 mi NE 6.9 mph - 0.04 in   Overcast
5:55 AM 50.9 °F 48.7 °F 92% 30.06 in 10.0 mi WSW 6.9 mph - 0.04 in Thunderstorm Thunderstorm
6:15 AM 51.1 °F 48.6 °F 91% 30.06 in 10.0 mi SW 5.8 mph - N/A Rain , Thunderstorm Light Thunderstorms and Rain
6:35 AM 52.3 °F 47.8 °F 85% 30.06 in 10.0 mi NNE 4.6 mph - 0.01 in Rain Rain
6:55 AM 51.4 °F 48.2 °F 89% 30.07 in 10.0 mi North 6.9 mph - 0.02 in Rain Light Rain
7:15 AM 51.1 °F 48.7 °F 92% 30.09 in 10.0 mi North 6.9 mph - N/A   Overcast
7:35 AM 51.1 °F 48.4 °F 90% 30.09 in 10.0 mi NE 4.6 mph - N/A Rain Light Rain
7:55 AM 51.3 °F 48.2 °F 89% 30.09 in 10.0 mi NNE 4.6 mph - N/A   Overcast
8:15 AM 51.1 °F 48.2 °F 90% 30.10 in 10.0 mi NNE 5.8 mph - N/A   Mostly Cloudy
8:35 AM 50.9 °F 47.8 °F 89% 30.10 in 10.0 mi NNE 10.4 mph - N/A   Scattered Clouds
8:55 AM 51.6 °F 48.2 °F 88% 30.10 in 10.0 mi NNE 10.4 mph - N/A   Clear
9:15 AM 52.3 °F 48.2 °F 86% 30.10 in 10.0 mi NNE 11.5 mph 18.4 mph N/A   Clear
9:55 AM 54.3 °F 47.1 °F 77% 30.10 in 10.0 mi NNE 12.7 mph 18.4 mph N/A   Clear
10:15 AM 54.9 °F 45.7 °F 71% 30.10 in 10.0 mi NNE 16.1 mph 24.2 mph N/A   Clear
10:35 AM 56.3 °F 45.1 °F 66% 30.10 in 10.0 mi NNE 13.8 mph 20.7 mph N/A   Clear
10:55 AM 57.4 °F 44.8 °F 63% 30.10 in 10.0 mi NNE 11.5 mph 20.7 mph N/A   Clear
11:15 AM 57.7 °F 44.1 °F 60% 30.09 in 10.0 mi North 12.7 mph 18.4 mph N/A   Clear
11:35 AM 58.5 °F 42.4 °F 55% 30.09 in 10.0 mi North 15.0 mph 20.7 mph N/A   Clear
11:55 AM 59.9 °F 42.1 °F 52% 30.09 in 10.0 mi North 11.5 mph 17.3 mph N/A   Clear
12:15 PM 60.8 °F 39.0 °F 45% 30.08 in 10.0 mi North 13.8 mph 21.9 mph N/A   Clear
12:35 PM 62.1 °F 37.9 °F 41% 30.08 in 10.0 mi NNE 16.1 mph 20.7 mph N/A   Clear
12:55 PM 63.3 °F 36.3 °F 37% 30.08 in 10.0 mi NNE 12.7 mph 18.4 mph N/A   Clear
1:15 PM 63.5 °F 36.3 °F 36% 30.08 in 10.0 mi NNW 10.4 mph 16.1 mph N/A   Clear
1:35 PM 64.0 °F 35.4 °F 35% 30.07 in 10.0 mi North 8.1 mph - N/A   Clear
1:55 PM 64.8 °F 32.9 °F 30% 30.07 in 10.0 mi North 13.8 mph - N/A   Clear
2:15 PM 65.1 °F 32.4 °F 29% 30.07 in 10.0 mi North 9.2 mph - N/A   Clear
2:35 PM 65.7 °F 31.5 °F 28% 30.07 in 10.0 mi North 4.6 mph - N/A   Clear
2:55 PM 66.2 °F 31.1 °F 27% 30.06 in 10.0 mi North 5.8 mph - N/A   Clear
3:15 PM 66.2 °F 29.3 °F 25% 30.05 in 10.0 mi NW 3.5 mph - N/A   Clear
3:35 PM 66.4 °F 29.7 °F 25% 30.04 in 10.0 mi NNW 4.6 mph - N/A   Clear
3:55 PM 67.5 °F 28.4 °F 23% 30.03 in 10.0 mi North 4.6 mph - N/A   Clear
4:15 PM 66.9 °F 28.4 °F 24% 30.02 in 10.0 mi Calm Calm - N/A   Clear
4:35 PM 67.5 °F 28.4 °F 23% 30.02 in 10.0 mi Calm Calm - N/A   Clear
4:55 PM 67.8 °F 27.7 °F 22% 30.01 in 10.0 mi Calm Calm - N/A   Clear
5:15 PM 67.8 °F 27.5 °F 22% 29.99 in 10.0 mi Calm Calm - N/A   Clear
5:35 PM 68.0 °F 27.7 °F 22% 29.99 in 10.0 mi Calm Calm - N/A   Clear
5:55 PM 68.0 °F 27.1 °F 22% 29.98 in 10.0 mi SW 3.5 mph - N/A   Clear
6:15 PM 67.8 °F 26.6 °F 21% 29.98 in 10.0 mi Calm Calm - N/A   Clear
6:35 PM 68.0 °F 27.3 °F 22% 29.98 in 10.0 mi Calm Calm - N/A   Clear
6:55 PM 68.0 °F 25.0 °F 20% 29.97 in 10.0 mi Calm Calm - N/A   Clear
7:15 PM 67.8 °F 28.8 °F 23% 29.97 in 10.0 mi Calm Calm - N/A   Clear
7:35 PM 67.1 °F 30.2 °F 25% 29.97 in 10.0 mi WSW 3.5 mph - N/A   Clear
7:55 PM 65.1 °F 32.9 °F 30% 29.97 in 10.0 mi South 3.5 mph - N/A   Clear
8:15 PM 62.4 °F 32.4 °F 32% 29.98 in 10.0 mi South 4.6 mph - N/A   Clear
8:35 PM 57.7 °F 37.0 °F 46% 29.98 in 10.0 mi South 3.5 mph - N/A   Clear
8:55 PM 56.5 °F 36.9 °F 48% 29.98 in 10.0 mi Calm Calm - N/A   Clear
9:15 PM 55.0 °F 36.5 °F 50% 29.98 in 10.0 mi Calm Calm - N/A   Clear
9:35 PM 55.0 °F 36.5 °F 50% 29.99 in 10.0 mi Calm Calm - N/A   Clear
9:55 PM 53.8 °F 37.9 °F 55% 29.99 in 10.0 mi Calm Calm - N/A   Clear
10:15 PM 53.1 °F 37.8 °F 56% 29.98 in 10.0 mi Calm Calm - N/A   Clear
10:35 PM 53.1 °F 37.6 °F 56% 29.98 in 10.0 mi WSW 3.5 mph - N/A   Clear
10:55 PM 52.3 °F 38.1 °F 58% 29.98 in 10.0 mi West 3.5 mph - N/A   Clear
11:15 PM 50.4 °F 38.8 °F 65% 29.98 in 10.0 mi Calm Calm - N/A   Clear
11:35 PM 50.9 °F 38.7 °F 63% 29.98 in 10.0 mi Calm Calm - N/A   Clear
11:55 PM 50.2 °F 39.4 °F 66% 29.99 in 10.0 mi Calm Calm - N/A   Clear